Погода в Бушуево

Россия / Тюменская область     56°44′00″N   67°21′09″E
темп.,
°C
ветер,
м/с
пор.,
м/с
влажн.,
%
обл.,
%
осадки,
мм/ч
давл.,
гПа
погр.,
м
20 апреля, вт
вт2023:00−5св25540 0.0 1034148
02:00−6св11553 0.0 103425
05:00−6зсз11533 0.0 103428
08:00−3з35395 0.0 1034645
11:00+2з45305 0.0 10311141
14:00+5з68315 0.0 10291663
17:00+7зсз69335 0.0 10271749
20:00+3з37516 0.0 102699
21 апреля, ср
ср2123:00+2з411625 0.0 1026202
02:000зсз410725 0.0 1025182
05:00−1сз37835 0.0 1027120
08:00+4с47735 0.0 1028401
11:00+7с575350 0.0 10291347
14:00+8с564970 0.0 10301507
17:00+8с454760 0.0 10321435
20:00+5ссв34615 0.0 103474
22 апреля, чт
чт2223:00+3св22701 0.0 103633
02:00+1юв33715 0.0 103736
05:000ююв36730 0.0 1038104
08:00+4ююв46565 0.0 1039344
11:00+9ююв55435 0.0 10391147
14:00+11ю55385 0.0 10391594
17:00+12ю56395 0.0 10381661
20:00+8ююв4105254 0.0 1038216
23 апреля, пт
пт2323:00+6ююв61352100 0.0 1038381
02:00+5ююв51356100 0.0 1038333
05:00+3ююв5126247 0.0 1038263
08:00+6ююв69505 0.0 1038345
11:00+12ю674113 0.0 1036835
14:00+15ю673678 0.0 10351922
17:00+14ююз6735100 0.0 10342040
20:00+11ю4944100 0.0 1034309
24 апреля, сб
сб2423:00+8ююв4105099 0.0 1034275
02:00+6ююв4957100 0.0 1033199
05:00+5ююв4961100 0.0 1032182
08:00+8ю5950100 0.0 1031351
11:00+11ю6836100 0.0 1030884
14:00+12ю6731100 0.0 10291503
17:00+13ю5730100 0.0 10271678
20:00+10юв3543100 0.0 1026102